Powrót do katalogu

ONEWEB-0348

AktywnyŁącznośćPO
NORAD 49213·PAYLOAD·🇬🇧 United Kingdom

Wystrzelony Sep 14, 2021 z Baikonur Cosmodrome

Loading…

Następne Przeloty (najbliższe 24 godziny)

TLE

ŚwieżeSource: CelesTrak SupGP

Epoka: Sep 14, 2026, 19:35 UTC

1 49213C 21083AD  26257.81648565  .00001251  00000+0  30796-2 0  2570
2 49213  87.9142 256.5624 0001910 104.4904 288.6234 13.20770534    11

Śledź ONEWEB-0348 w czasie rzeczywistym z AllMySat

Download on the App Store